Weather History for KIRK - January, 2014

Change the Weather History Date:

Monday, January 20, 2014

  Actual Average Record
Temperature  
Mean Temperature 32 °F 26 °F  
Max Temperature 46 °F 35 °F 60 °F (1921)
Min Temperature 17 °F 17 °F -21 °F (1985)
Degree Days  
Heating Degree Days 33 39  
Month to date heating degree days 678 780  
Since 1 July heating degree days 3169 3123  
Cooling Degree Days 0 0  
Month to date cooling degree days 0 0  
Year to date cooling degree days 0 0  
Moisture  
Dew Point 25 °F    
Average Humidity 73    
Maximum Humidity 92    
Minimum Humidity 53    
Precipitation  
Precipitation 0.01 in 0.04 in 0.36 in (1937)
Month to date precipitation 0.72 0.68  
Year to date precipitation 0.72 0.68  
Sea Level Pressure  
Sea Level Pressure 30.00 in    
Wind  
Wind Speed 11 mph (NW)    
Max Wind Speed 30 mph    
Max Gust Speed 42 mph    
Visibility 7 miles    
Events Fog , Snow    
T = Trace of Precipitation, MM = Missing Value Source: NWS Daily Summary

Daily Weather History Graph

Daily Weather History Graph

Search for Another Location

Airport or City:

Trip Planner

Search our weather history database for the weather conditions in past years. The results will help you decide how hot, cold, wet, or windy it might be!

Date:

Astronomy

Jan. 20, 2014 Rise Set
Actual Time 7:27 AM CST 5:14 PM CST
Civil Twilight 6:58 AM CST 5:44 PM CST
Nautical Twilight 6:25 AM CST 6:17 PM CST
Astronomical Twilight 5:53 AM CST 6:49 PM CST
Moon 9:50 PM CST (1/20) 9:27 AM CST (1/20)
Length of Visible Light 10h 45m
Length of Day
9h 46m
Waning Gibbous, 82% of the Moon is Illuminated
Jan 20
Waning Gibbous
Jan 23
Last Quarter
Jan 30
New
Feb 6
First Quarter
Feb 14
Full

Hourly Weather History & Observations

Time (CST) Temp. Windchill Dew Point Humidity Pressure Visibility Wind Dir Wind Speed Gust Speed Precip Events Conditions
12:55 AM 41.0 °F 34.7 °F 27.0 °F 57% 29.81 in 10.0 mi NW 10.4 mph 19.6 mph N/A   Clear
1:55 AM 39.0 °F 32.8 °F 27.0 °F 62% 29.83 in 10.0 mi WNW 9.2 mph - N/A   Clear
2:55 AM 36.0 °F 29.6 °F 27.0 °F 70% 29.86 in 10.0 mi NW 8.1 mph - N/A   Clear
3:55 AM 33.1 °F 26.9 °F 26.1 °F 75% 29.89 in 10.0 mi WNW 6.9 mph - N/A   Clear
4:55 AM 30.9 °F 25.2 °F 25.0 °F 79% 29.90 in 10.0 mi NW 5.8 mph - N/A   Clear
5:55 AM 25.0 °F 19.3 °F 23.0 °F 92% 29.93 in 10.0 mi SW 4.6 mph - N/A   Clear
6:55 AM 25.0 °F 19.3 °F 21.9 °F 88% 29.95 in 10.0 mi West 4.6 mph - N/A   Clear
7:55 AM 30.0 °F 24.1 °F 25.0 °F 82% 29.95 in 10.0 mi NW 5.8 mph - N/A   Clear
8:55 AM 37.0 °F 34.5 °F 28.9 °F 73% 29.96 in 10.0 mi West 3.5 mph - N/A   Clear
9:55 AM 42.1 °F 37.7 °F 30.0 °F 62% 29.99 in 10.0 mi WNW 6.9 mph - N/A   Clear
10:55 AM 43.0 °F 37.7 °F 28.9 °F 58% 30.00 in 10.0 mi WNW 9.2 mph - N/A   Clear
11:55 AM 44.1 °F 40.1 °F 30.0 °F 58% 29.98 in 10.0 mi West 6.9 mph - N/A   Clear
12:55 PM 44.1 °F 37.7 °F 28.9 °F 55% 29.96 in 10.0 mi West 12.7 mph - N/A   Clear
1:55 PM 45.0 °F 39.7 °F 28.9 °F 53% 29.95 in 10.0 mi WNW 10.4 mph - N/A   Clear
2:55 PM 45.0 °F 40.1 °F 28.9 °F 53% 29.96 in 10.0 mi West 9.2 mph - N/A   Clear
3:55 PM 45.0 °F 40.1 °F 28.0 °F 52% 29.97 in 10.0 mi West 9.2 mph - N/A   Clear
4:55 PM 42.1 °F 37.1 °F 27.0 °F 55% 29.98 in 10.0 mi West 8.1 mph - N/A   Scattered Clouds
5:55 PM 42.1 °F 37.1 °F 28.9 °F 60% 29.99 in 10.0 mi West 8.1 mph - 0.00 in   Overcast
6:55 PM 41.0 °F 33.5 °F 26.1 °F 55% 30.00 in 10.0 mi NW 13.8 mph 20.7 mph N/A   Overcast
7:55 PM 39.0 °F 31.4 °F 26.1 °F 60% 30.00 in 10.0 mi NW 12.7 mph 25.3 mph N/A   Mostly Cloudy
8:34 PM 37.0 °F 27.4 °F 27.0 °F 67% 29.98 in 10.0 mi NW 17.3 mph 33.4 mph N/A   Overcast
8:55 PM 36.0 °F 25.6 °F 27.0 °F 70% 30.02 in 10.0 mi NW 18.4 mph 28.8 mph N/A   Overcast
9:05 PM 35.1 °F 24.5 °F 28.0 °F 76% 29.99 in 2.5 mi WNW 18.4 mph 32.2 mph 0.00 in Snow Light Snow
9:31 PM 33.1 °F 21.9 °F 28.9 °F 85% 30.00 in 1.2 mi NW 18.4 mph 29.9 mph 0.00 in Snow Light Snow
9:37 PM 32.0 °F 19.2 °F 28.9 °F 88% 30.01 in 0.8 mi NW 23.0 mph 31.1 mph 0.00 in Snow Light Snow
9:46 PM 30.0 °F 17.9 °F 27.0 °F 88% 30.03 in 0.5 mi NNW 18.4 mph 36.8 mph 0.00 in Fog , Snow Snow
9:55 PM 27.0 °F 11.0 °F 23.0 °F 85% 30.08 in 0.8 mi NNW 28.8 mph 42.6 mph 0.00 in Snow Light Snow
10:01 PM 26.1 °F 10.7 °F 21.9 °F 84% 30.05 in 1.5 mi NNW 25.3 mph 42.6 mph 0.00 in Snow Light Snow
10:10 PM 26.1 °F 11.0 °F 21.9 °F 84% 30.06 in 1.8 mi NNW 24.2 mph 38.0 mph 0.00 in Snow Light Snow
10:44 PM 23.0 °F 8.7 °F 19.0 °F 85% 30.11 in 1.5 mi NNW 18.4 mph 27.6 mph 0.00 in Snow Light Snow
10:55 PM 21.9 °F 4.8 °F 17.1 °F 82% 30.16 in 1.8 mi North 26.5 mph 35.7 mph 0.01 in Snow Light Snow
11:15 PM 21.0 °F 7.6 °F 17.1 °F 85% 30.13 in 1.0 mi NNW 15.0 mph 33.4 mph 0.00 in Snow Light Snow
11:23 PM 19.9 °F 3.9 °F 16.0 °F 85% 30.14 in 0.8 mi NNW 20.7 mph 32.2 mph 0.00 in Snow Light Snow
11:34 PM 19.0 °F 2.4 °F 14.0 °F 81% 30.15 in 1.2 mi NNW 21.9 mph 31.1 mph 0.00 in Snow Light Snow
11:55 PM 18.0 °F 0.2 °F 12.9 °F 81% 30.21 in 1.8 mi NNW 24.2 mph 34.5 mph 0.00 in Snow Light Snow